Location: Franzen
(48.6167°N, 15.3833°E)
Time: 13:18:20
(UTC+00:00)

IGS 5A - Pass Details

Date: 22 April 2021
Orbit: 583 x 588 km, 97.6° (Epoch: 06 May)

Event Time Altitude Azimuth Distance (km) Brightness Sun altitude
Exits shadow 19:54:22 19° 185° (S) 1,428 5.1 -16.8°
Maximum altitude 19:57:14 57° 260° (W) 695 4.0 -17.2°
Drops below altitude 10° 20:01:19 10° 339° (NNW) 1,916 7.1 -17.6°
Sets 20:03:32 0° 344° (NNW) 2,821 8.0 -17.9°
